Tracking 31027 objects as of 19-Jul-2025
HD Live streaming from Space Station
objects crossing your sky now

PEGASUS DEB

Track PEGASUS DEB now!
10-day predictions


NORAD ID: 39926
Int'l Code: 1994-029AFZ
Perigee: 603.5 km
Apogee: 1,038.4 km
Inclination: 81.8 °
Period: 101.2 minutes
Semi major axis: 7191 km
RCS: 0.0112 m2 (small)
Launch date: May 19, 1994
Source: United States (US)
Launch site: AIR FORCE WESTERN TEST RANGE (AFWTR)

Note: This is SATELLITE DEBRIS
Your satellite tracking list
STARLINK-1749
Track 1 satellite(s)




NASA's NSSDC Master Catalog

Two Line Element Set (TLE):
1 39926U 94029AFZ 25199.80116270  .00001437  00000-0  38834-3 0  9998
2 39926  81.8403 211.4366 0302378  71.7338  98.4776 14.23415025119087
Source of the keplerian elements: AFSPC